Погода в Малолосе

Филиппины     14°50′40″N   120°48′43″E
темп.,
°C
ветер,
м/с
пор.,
м/с
влажн.,
%
обл.,
%
осадки,
мм/ч
давл.,
гПа
погр.,
м
9 декабря, чт
чт923:00+26всв9137091 0.0 10151180
02:00+26св91370100 0.0 10141255
05:00+25св81273100 0.0 10141087
08:00+25св81270100 0.0 10161211
11:00+28св101159100 0.0 10151544
14:00+29всв785526 0.0 10121099
17:00+27всв8106394 0.0 10121001
20:00+26всв81168100 0.0 10141067
10 декабря, пт
пт1023:00+26всв711685 0.0 10141135
02:00+25св8117033 0.0 10121098
05:00+24св71072100 0.0 1012865
08:00+26св7116889 0.0 10141124
11:00+28всв91062100 0.0 10131476
14:00+29всв91056100 0.0 10101074
17:00+27всв89655 0.0 1011893
20:00+26всв7116783 0.0 1014972
11 декабря, сб
сб1123:00+26всв711685 0.0 1013987
02:00+24ссв58765 0.0 1012514
05:00+23ссв58795 0.0 1012340
08:00+25ссв68727 0.0 1014492
11:00+29всв695993 0.0 10131367
14:00+29всв786117 0.0 10111115
17:00+28всв79651 0.0 1011928
20:00+26всв586812 0.0 1013752
12 декабря, вс
вс1223:00+26св597218 0.0 1013793
02:00+26св6107538 0.0 1012846
05:00+24с5878100 0.0 1012352
08:00+25ссв6972100 0.0 1014604
11:00+29всв81263100 0.0 10131381
14:00+29всв9116399 0.0 10111217
17:00+27всв9136883 0.0 1011973
20:00+27всв91370100 0.0 10131017
13 декабря, пн
пн1323:00+26всв9136999 0.0 10121058
02:00+26св8127077 0.0 10111132
05:00+25св7137582 0.0 10111082
08:00+27св10156955 0.0 10131315
11:00+28всв11146462 0.0 10131531
14:00+29всв11146126 0.0 10101386
17:00+27всв11157166 0.0 10101205
20:00+27всв9137298 0.0 10121305